Overview Statistics Trail Chart Weather Telemetry Raw packets
 

This is the latest recevied weather packets stored in our database for station/object W1RCP. If no packets are shown the sender has not sent any weather packets the latest 10 day(s).

<< 8 9 10 11 12 13 14 >>
Time Temp. Humidity Pressure Rain* Wind** Luminosity Snow
1788558173 32.22° C 67% 1025.1 hPa 0 mm - 143 W/m² -
1788557870 32.78° C 66% 1025.1 hPa 0 mm - 167 W/m² -
1788557566 32.78° C 64% 1025 hPa 0 mm - 194 W/m² -
1788557262 32.78° C 63% 1025 hPa 0 mm - 229 W/m² -
1788556962 32.78° C 63% 1024.7 hPa 0 mm - 250 W/m² -
1788556657 32.78° C 63% 1024.6 hPa 0 mm - 249 W/m² -
1788556351 33.33° C 62% 1024.9 hPa 0 mm - 233 W/m² -
1788556047 33.33° C 62% 1024.6 hPa 0 mm - 270 W/m² -
1788555741 33.33° C 61% 1024.9 hPa 0 mm - 349 W/m² -
1788555438 32.78° C 62% 1024.8 hPa 0 mm - 439 W/m² -
1788555134 32.78° C 62% 1025 hPa 0 mm - 259 W/m² -
1788554843 33.33° C 61% 1024.8 hPa 0 mm - 257 W/m² -
1788554526 33.33° C 61% 1024.8 hPa 0 mm - 264 W/m² -
1788554221 33.89° C 60% 1024.8 hPa 0 mm - 295 W/m² -
1788553918 33.33° C 60% 1024.7 hPa 0 mm - 504 W/m² -
1788553614 33.89° C 57% 1024.8 hPa 0 mm - 351 W/m² -
1788553310 34.44° C 57% 1024.7 hPa 0 mm - 342 W/m² -
1788553010 33.89° C 56% 1024.8 hPa 0 mm - 387 W/m² -
1788552705 33.89° C 60% 1024.8 hPa 0 mm - 422 W/m² -
1788552404 33.33° C 60% 1024.9 hPa 0 mm - 416 W/m² -
1788552099 33.89° C 60% 1025.1 hPa 0 mm - 358 W/m² -
1788551798 33.89° C 60% 1025.1 hPa 0 mm - 307 W/m² -
1788551492 33.89° C 54% 1025.1 hPa 0 mm - 383 W/m² -
1788551191 33.33° C 60% 1025.1 hPa 0 mm - 458 W/m² -
1788550887 33.33° C 61% 1025.1 hPa 0 mm - 333 W/m² -

* Rain latest hour (hover to see other rain measurements)
** Current wind speed in m/s (hover to see current wind gust speed)